CCM76CO LFMN-LFKC

Flight info

Callsign CCM76CO
Flight time 0h 21m
Altitude 13000
Route SODRI
Aircraft A320/M-SDE3FGHIRWY/LB1

Departure

Time 2026-04-21 19:55
Airport Nice-Côte d'Azur Airport (LFMN)

Arrival

Time 2026-04-21 20:16
Airport Calvi Sainte Catherine Airport (LFKC)
Time Latitude Longitude Altitude Speed Heading
2026-04-21 19:28 43.66080 7.20703 21 ft 0 kts 261°
2026-04-21 19:44 43.66083 7.20729 23 ft 4 kts 261°
2026-04-21 19:44 43.66086 7.20758 23 ft 4 kts 257°
2026-04-21 19:45 43.66096 7.20787 21 ft 4 kts 208°
2026-04-21 19:45 43.66119 7.20791 21 ft 4 kts 171°
2026-04-21 19:45 43.66128 7.20790 21 ft 0 kts 171°
2026-04-21 19:48 43.66127 7.20790 21 ft 1 kts 171°
2026-04-21 19:48 43.66092 7.20797 21 ft 6 kts 171°
2026-04-21 19:48 43.66032 7.20810 21 ft 10 kts 170°
2026-04-21 19:48 43.65971 7.20825 21 ft 8 kts 170°
2026-04-21 19:49 43.65920 7.20837 21 ft 7 kts 170°
2026-04-21 19:49 43.65872 7.20848 22 ft 10 kts 171°
2026-04-21 19:49 43.65784 7.20867 21 ft 13 kts 172°
2026-04-21 19:49 43.65724 7.20880 21 ft 6 kts 170°
2026-04-21 19:50 43.65703 7.20885 21 ft 0 kts 170°
2026-04-21 19:52 43.65661 7.20895 21 ft 12 kts 170°
2026-04-21 19:52 43.65584 7.20912 21 ft 10 kts 171°
2026-04-21 19:53 43.65518 7.20926 21 ft 10 kts 171°
2026-04-21 19:53 43.65451 7.20941 21 ft 10 kts 171°
2026-04-21 19:53 43.65404 7.20950 23 ft 10 kts 172°
2026-04-21 19:53 43.65299 7.20891 23 ft 16 kts 215°
2026-04-21 19:54 43.65234 7.20908 21 ft 16 kts 132°
2026-04-21 19:54 43.65243 7.21034 24 ft 12 kts 49°
2026-04-21 19:54 43.65256 7.21050 22 ft 0 kts 43°
2026-04-21 19:54 43.65256 7.21051 22 ft 2 kts 43°
2026-04-21 19:55 43.65421 7.21275 25 ft 77 kts 45°
2026-04-21 19:55 43.66005 7.22078 24 ft 155 kts 45°
2026-04-21 19:55 43.66825 7.23232 580 ft 172 kts 51°
2026-04-21 19:55 43.67205 7.24735 1348 ft 175 kts 97°
2026-04-21 19:56 43.66637 7.26278 1791 ft 193 kts 133°
2026-04-21 19:56 43.65582 7.27588 2147 ft 212 kts 140°
2026-04-21 19:56 43.64408 7.28871 2771 ft 218 kts 141°
2026-04-21 19:56 43.63227 7.30200 3591 ft 220 kts 139°
2026-04-21 19:57 43.62136 7.31815 4025 ft 242 kts 129°
2026-04-21 19:57 43.61035 7.33714 4511 ft 262 kts 128°
2026-04-21 19:57 43.59899 7.35729 5300 ft 269 kts 127°
2026-04-21 19:57 43.58743 7.37788 6145 ft 274 kts 128°
2026-04-21 19:58 43.57565 7.39879 6986 ft 278 kts 128°
2026-04-21 19:58 43.56401 7.41987 7833 ft 281 kts 124°
2026-04-21 19:58 43.55339 7.44266 8686 ft 285 kts 122°
2026-04-21 19:58 43.54304 7.46613 9499 ft 288 kts 122°
2026-04-21 19:59 43.53272 7.49009 10230 ft 296 kts 123°
2026-04-21 19:59 43.52181 7.51546 10496 ft 320 kts 123°
2026-04-21 19:59 43.51106 7.54028 10697 ft 341 kts 122°
2026-04-21 19:59 43.49844 7.56930 10880 ft 365 kts 121°
2026-04-21 20:00 43.48500 7.60020 11018 ft 388 kts 121°
2026-04-21 20:00 43.47075 7.63291 11162 ft 408 kts 121°
2026-04-21 20:00 43.45596 7.66671 11611 ft 416 kts 121°
2026-04-21 20:00 43.44109 7.70058 12150 ft 422 kts 121°
2026-04-21 20:01 43.42580 7.73544 12688 ft 428 kts 121°
2026-04-21 20:01 43.41034 7.77064 12900 ft 431 kts 121°
2026-04-21 20:01 43.39469 7.80618 12960 ft 437 kts 121°
2026-04-21 20:01 43.37893 7.84195 12948 ft 438 kts 121°
2026-04-21 20:02 43.36313 7.87775 12953 ft 438 kts 121°
2026-04-21 20:02 43.34734 7.91343 12960 ft 439 kts 121°
2026-04-21 20:02 43.33144 7.94935 12960 ft 439 kts 121°
2026-04-21 20:02 43.31557 7.98512 12958 ft 439 kts 121°
2026-04-21 20:03 43.29989 8.02045 12965 ft 438 kts 122°
2026-04-21 20:03 43.28399 8.05619 12961 ft 438 kts 122°
2026-04-21 20:03 43.26814 8.09182 12961 ft 438 kts 122°
2026-04-21 20:03 43.25224 8.12757 12964 ft 438 kts 122°
2026-04-21 20:04 43.23636 8.16330 12968 ft 438 kts 122°
2026-04-21 20:04 43.22069 8.19849 12968 ft 438 kts 122°
2026-04-21 20:04 43.20456 8.23460 12968 ft 438 kts 122°
2026-04-21 20:04 43.18882 8.26970 12972 ft 438 kts 122°
2026-04-21 20:05 43.17287 8.30520 12972 ft 437 kts 122°
2026-04-21 20:05 43.15702 8.34041 12956 ft 433 kts 122°
2026-04-21 20:05 43.14131 8.37535 12960 ft 433 kts 122°
2026-04-21 20:05 43.12552 8.41050 12954 ft 433 kts 122°
2026-04-21 20:06 43.10971 8.44570 12956 ft 433 kts 122°
2026-04-21 20:06 43.09397 8.48074 12952 ft 432 kts 122°
2026-04-21 20:06 43.07819 8.51569 12952 ft 432 kts 122°
2026-04-21 20:06 43.06269 8.54997 12950 ft 414 kts 122°
2026-04-21 20:07 43.04811 8.58214 12953 ft 394 kts 122°
2026-04-21 20:07 43.03401 8.61328 12947 ft 376 kts 122°
2026-04-21 20:07 43.02056 8.64296 12950 ft 359 kts 122°
2026-04-21 20:07 43.00767 8.67134 12900 ft 345 kts 122°
2026-04-21 20:08 42.99523 8.69862 12674 ft 333 kts 122°
2026-04-21 20:08 42.98309 8.72525 12290 ft 328 kts 122°
2026-04-21 20:08 42.97107 8.75143 11712 ft 323 kts 126°
2026-04-21 20:08 42.95579 8.77332 11139 ft 315 kts 146°
2026-04-21 20:09 42.93673 8.78683 10642 ft 302 kts 166°
2026-04-21 20:09 42.91727 8.79147 10518 ft 277 kts 182°
2026-04-21 20:09 42.89852 8.79184 10162 ft 266 kts 182°
2026-04-21 20:09 42.88015 8.79206 9661 ft 262 kts 182°
2026-04-21 20:10 42.86201 8.79214 9159 ft 259 kts 182°
2026-04-21 20:10 42.84405 8.79212 8656 ft 256 kts 181°
2026-04-21 20:10 42.82632 8.79207 8137 ft 254 kts 181°
2026-04-21 20:10 42.80877 8.79200 7650 ft 250 kts 181°
2026-04-21 20:11 42.79199 8.79196 7511 ft 232 kts 181°
2026-04-21 20:11 42.77643 8.79195 7415 ft 214 kts 181°
2026-04-21 20:11 42.76196 8.79196 7092 ft 205 kts 181°
2026-04-21 20:11 42.74793 8.79201 6657 ft 204 kts 181°
2026-04-21 20:12 42.73387 8.79204 6171 ft 201 kts 181°
2026-04-21 20:12 42.72006 8.79210 5775 ft 194 kts 180°
2026-04-21 20:12 42.70686 8.79219 5392 ft 188 kts 180°
2026-04-21 20:12 42.69389 8.79227 4980 ft 185 kts 180°
2026-04-21 20:13 42.68106 8.79234 4523 ft 184 kts 180°
2026-04-21 20:13 42.66830 8.79240 4086 ft 182 kts 180°
2026-04-21 20:13 42.65566 8.79248 3635 ft 179 kts 180°
2026-04-21 20:13 42.64321 8.79252 3113 ft 178 kts 180°
2026-04-21 20:14 42.63098 8.79254 2643 ft 173 kts 179°
2026-04-21 20:14 42.61978 8.79258 2214 ft 169 kts 180°
2026-04-21 20:14 42.60823 8.79263 1769 ft 165 kts 179°
2026-04-21 20:14 42.59688 8.79266 1352 ft 160 kts 180°
2026-04-21 20:15 42.58591 8.79295 997 ft 154 kts 179°
2026-04-21 20:15 42.57552 8.79324 802 ft 146 kts 182°
2026-04-21 20:15 42.56545 8.79288 591 ft 143 kts 182°
2026-04-21 20:15 42.55555 8.79311 412 ft 142 kts 180°
2026-04-21 20:16 42.54568 8.79297 214 ft 141 kts 181°
2026-04-21 20:16 42.53602 8.79301 114 ft 129 kts 180°
2026-04-21 20:16 42.52870 8.79301 163 ft 71 kts 179°
2026-04-21 20:16 42.52661 8.79301 179 ft 5 kts 181°
2026-04-21 20:17 42.52591 8.79299 197 ft 10 kts 181°
2026-04-21 20:17 42.52545 8.79297 188 ft 5 kts 181°
2026-04-21 20:17 42.52462 8.79289 192 ft 16 kts 200°
2026-04-21 20:17 42.52435 8.79197 193 ft 0 kts 270°
2026-04-21 20:19 42.52437 8.79162 193 ft 9 kts 279°
2026-04-21 20:19 42.52463 8.79094 192 ft 8 kts 300°
2026-04-21 20:19 42.52470 8.79078 192 ft 0 kts 300°